Total_Precipitation_Accumulation
1.75 1.85 1.87 1.84 1.85 1.89 1.97 2.14 2.36 2.28 2.08 1.84 1.77 1.70 1.66 1.64 1.74 1.49 1.46 1.42 1.38 1.40 1.41 1.44 1.52 1.69 1.77 1.75 1.62 1.53 1.53 1.59 1.73 1.86 2.07 2.34 2.62 2.92
1.61 1.59 1.57 1.53 1.61 1.64 1.73 1.86 2.04 2.21 2.09 1.73 1.67 1.70 1.71 1.60 1.79 1.61 1.53 1.51 1.45 1.61 1.72 1.67 1.65 1.82 1.95 1.97 1.78 1.62 1.57 1.56 1.60 1.62 1.71 1.90 2.15 2.41
1.28 1.26 1.29 1.37 1.50 1.49 1.52 1.65 1.87 2.08 2.14 1.76 1.61 1.71 1.86 1.81 1.84 1.75 1.64 1.64 1.63 1.96 2.10 2.30 2.07 1.97 2.05 2.08 2.00 1.77 1.61 1.55 1.60 1.65 1.74 1.86 1.94 2.03
1.17 1.22 1.23 1.27 1.37 1.43 1.49 1.55 1.71 1.97 2.13 2.05 1.81 1.83 1.90 1.86 1.94 1.89 1.69 1.59 1.63 2.05 2.27 2.56 2.51 2.23 2.23 2.12 2.02 1.83 1.67 1.56 1.56 1.60 1.64 1.70 1.78 1.86
1.11 1.17 1.22 1.39 1.40 1.43 1.50 1.53 1.64 1.77 2.09 2.14 1.94 1.95 2.01 2.02 2.16 2.00 1.81 1.79 1.54 1.83 2.24 2.55 2.64 2.64 2.70 2.58 2.33 1.99 1.74 1.54 1.41 1.40 1.45 1.51 1.54 1.55
1.10 1.17 1.23 1.37 1.44 1.50 1.51 1.59 1.67 1.81 2.00 2.14 2.08 2.07 2.14 2.19 2.21 2.13 1.99 1.85 1.67 1.61 2.06 2.48 2.78 2.83 2.96 3.05 2.80 2.36 1.98 1.68 1.46 1.31 1.21 1.18 1.24 1.26
1.04 1.06 1.11 1.21 1.32 1.33 1.24 1.35 1.55 1.80 1.87 2.06 2.11 2.14 2.13 2.21 2.11 1.89 1.83 1.80 1.65 1.56 1.76 2.11 2.79 3.11 3.14 3.21 3.12 2.64 2.20 1.84 1.56 1.35 1.22 1.14 1.14 1.18
1.04 1.03 0.98 0.96 0.95 0.97 1.02 1.09 1.27 1.57 1.92 2.16 2.12 2.10 1.99 1.92 1.94 1.89 1.90 1.92 1.86 1.56 1.53 1.76 2.32 3.11 3.32 3.25 3.18 2.58 2.07 1.76 1.56 1.40 1.30 1.24 1.22 1.23
1.18 1.14 0.90 0.78 0.89 0.94 0.99 1.05 1.17 1.36 1.69 2.08 2.17 1.97 1.92 1.88 1.95 1.95 2.01 2.04 1.91 1.61 1.66 1.87 2.20 2.88 3.02 2.98 2.90 2.27 1.81 1.57 1.41 1.31 1.26 1.22 1.18 1.21
1.09 1.13 1.12 1.01 0.94 1.03 1.10 1.18 1.29 1.41 1.52 1.64 1.99 1.83 1.62 1.68 1.82 1.88 2.01 2.06 1.94 1.73 1.77 2.05 2.24 2.68 2.64 2.69 2.58 2.10 1.72 1.52 1.33 1.22 1.17 1.17 1.15 1.18
0.96 0.94 0.93 0.96 1.05 1.22 1.33 1.54 1.66 1.74 1.62 1.77 1.94 1.89 1.74 1.71 1.65 1.80 2.11 2.18 2.04 1.86 1.85 2.14 2.27 2.35 2.43 2.47 2.20 1.99 1.69 1.49 1.34 1.23 1.16 1.11 1.07 1.14
1.02 0.97 0.88 0.83 0.98 1.16 1.39 1.72 1.87 1.93 1.77 1.87 2.13 2.15 1.97 1.99 1.99 1.94 2.17 2.28 2.18 2.08 1.83 1.94 2.12 2.13 2.32 2.22 2.04 1.88 1.78 1.75 1.56 1.37 1.27 1.13 1.03 1.00
0.98 1.03 0.99 0.92 0.97 1.20 1.41 1.62 1.78 1.82 1.88 1.98 2.01 2.01 2.08 2.11 2.12 2.10 2.14 2.17 2.15 2.03 1.70 1.86 2.06 2.10 2.20 2.19 2.13 2.10 2.03 1.96 1.79 1.69 1.62 1.45 1.26 1.12
1.00 1.02 1.06 1.04 1.08 1.28 1.43 1.67 1.87 1.95 1.94 2.02 1.89 1.77 1.73 1.75 1.85 1.87 1.90 1.90 1.86 1.81 1.73 1.85 2.13 2.29 2.24 2.11 2.22 2.21 2.26 2.30 2.18 2.06 1.94 1.82 1.64 1.55
0.95 1.03 1.04 1.05 1.16 1.44 1.61 1.80 1.97 2.08 2.13 2.02 1.80 1.68 1.56 1.53 1.54 1.64 1.74 1.77 1.68 1.55 1.46 1.63 1.96 2.18 2.27 2.20 2.29 2.32 2.41 2.54 2.44 2.40 2.27 2.11 1.97 1.81
0.91 1.06 1.15 1.18 1.32 1.61 1.82 2.01 2.09 2.03 1.90 1.85 1.75 1.66 1.54 1.48 1.52 1.49 1.56 1.62 1.65 1.60 1.49 1.52 1.81 2.15 2.28 2.14 2.19 2.30 2.40 2.71 2.62 2.40 2.27 2.27 2.18 2.00
0.85 1.04 1.21 1.32 1.48 1.69 1.88 1.96 1.96 1.87 1.78 1.61 1.55 1.62 1.61 1.52 1.52 1.47 1.47 1.50 1.58 1.60 1.59 1.60 1.67 1.82 1.89 1.98 2.12 2.18 2.32 2.51 2.54 2.34 2.19 2.23 2.26 2.11
0.84 1.05 1.22 1.31 1.47 1.66 1.82 1.83 1.77 1.69 1.60 1.49 1.42 1.38 1.39 1.37 1.41 1.41 1.34 1.34 1.40 1.36 1.33 1.37 1.49 1.65 1.68 1.71 1.88 2.04 2.11 2.25 2.25 2.10 1.94 1.98 2.16 2.17
0.80 1.03 1.19 1.31 1.50 1.61 1.62 1.61 1.61 1.53 1.45 1.39 1.35 1.27 1.20 1.17 1.18 1.18 1.16 1.19 1.17 1.13 1.09 1.12 1.23 1.42 1.57 1.73 1.72 1.77 1.92 2.01 1.96 1.82 1.74 1.79 2.01 2.16
0.79 1.01 1.17 1.28 1.39 1.47 1.52 1.53 1.50 1.42 1.33 1.29 1.35 1.32 1.22 1.15 1.06 1.06 1.07 1.05 1.05 1.03 1.01 0.95 0.91 1.03 1.23 1.39 1.55 1.60 1.57 1.61 1.63 1.66 1.60 1.63 1.78 1.85
0.81 0.97 1.10 1.23 1.25 1.24 1.27 1.32 1.35 1.34 1.27 1.23 1.22 1.22 1.17 1.10 1.01 0.93 0.92 0.84 0.87 0.95 0.95 0.86 0.79 0.82 0.95 1.10 1.25 1.29 1.27 1.36 1.37 1.35 1.33 1.39 1.47 1.46
0.81 0.91 1.00 1.07 1.06 1.05 1.04 1.06 1.10 1.14 1.13 1.08 1.06 1.07 1.06 1.00 0.96 0.92 0.89 0.87 0.84 0.81 0.76 0.73 0.75 0.79 0.87 1.03 1.14 1.18 1.15 1.11 1.14 1.16 1.17 1.19 1.23 1.41
0.76 0.79 0.83 0.87 0.87 0.88 0.90 0.93 0.97 1.01 1.02 1.00 0.96 0.94 0.92 0.91 0.87 0.85 0.85 0.82 0.79 0.75 0.74 0.77 0.76 0.76 0.78 0.86 0.98 1.03 1.03 1.05 1.08 1.10 1.12 1.21 1.19 1.22